sat.trackr.live / text

‹ back to catalog

STARLINK-32585

NORAD 61953 · 2024-209Q

PAYLOAD ACTIVE UNKNOWN

§ Identity

Operator
Country
US
Launch date
2024-11-14
Launch site
AFWTR
Launch vehicle
Mass (kg)
RCS (m²)

Purposes: comms

External: N2YO · Heavens-Above · Gunter

§ Orbital elements

Epoch: 2026-09-21T09:19:10.823808Z

Period
93.85 min
Inclination
53.1587°
Eccentricity
0.0001159
Mean motion
15.34392159 rev/d
Perigee alt
461.9 km
Apogee alt
463.5 km
Semi-major
6,840.9 km
B*
6.9609e-4
RAAN
303.8453°
Arg perigee
92.6346°
Mean anomaly
267.4789°
Rev number
10,499

§ Raw data

STARLINK-325851 61953U 24209Q   26264.38831972  .00023209  00000+0  69609-3 0  99902 61953  53.1587 303.8453 0001159  92.6346 267.4789 15.34392159104995

JSON: /api/v1/satellites/61953 · /tle

For live sub-satellite position, see the globe view (requires WebGL).

§ Visibility from observer

Set your observer location to see the next 7 days of passes ≥ 10°. The values pass through the URL so the page stays shareable.

No JS? Fill the form by hand. The geolocation button needs JavaScript.